"Pseudo-MPEC" for P10OpLj

Created 2019 Jun 15 19:09:17 UT using Find_Orb

Click here for an explanation of pseudo-MPECs

 
 Astrometry: 
     P10OpLj  C2019 05 31Fvr_ZiM$0o9BT*J//1;7*Fx$3.3h=1im*NMM.TQ?#E;X)@glQ\*5F51
     P10OpLj  C2019 05 31)(n7[^.lM!PU)#d7/);.xM7n)pP3_3-O-hho5;JeKSC5k,r`:p3QF51
     P10OpLj  C2019 05 315[Z_1HDAstrometryERN%tt/2DO]RrLCXredacted;D]rclick:JF51
     P10OpLj  C2019 05 31#O+74_3;W?D\9:VIURc-J5*\3gTN7WWBHl8.Y.exRH7FX:M3ljtpF51
     P10OpLj |C2019 06 03Z$RmE`A6qy2@E%($3mV?ome(blo.]jY=He0n,^w_qq*vybcm\e!D807
     P10OpLj |C2019 06 03'nn6Qhere^IH,h2Tnr9FWd=a`=##dA_Za`YhTM$_1'-qptl?dJ)(807
     P10OpLj |C2019 06 03eCECFcd+CKk:FOr_:TG2$A8Bg1-7n5W74]wB@D3C83rdsg@yBak?807
     P10OpLj |C2019 06 06NL@JaQaO+xLI@FGSi_g$`)BZ\?A'^I]di-%tnT%lZO2P?J6`fnFI807
     P10OpLj |C2019 06 06j_/!fG%I1nVjC$DHp$Q\_(U/rOfRVw7@xWA#-L6wo:BqdI_+Un#q807
     P10OpLj |C2019 06 06wi4Oy1f?cC;A#HG9Ep-AgqBjK[u'*xxfor'Af1AQexplanationQ807
     P10OpLj  C2019 06 07:;OU6R#]F#--DtY@e*V:1`9dA4PR/\*$wYYge7$en1s8_R3$\i?HF51
     P10OpLj KC2019 06 11OX2JF#VxaZO@m_*tKR+DkkPXofG44PFm=WIo)y8v;R[j#3u!X@Qj291
     P10OpLj KC2019 06 116q7$`A%`vrWSu'LX.upCes1aNi[YZKQKP7G/QC[/PVjhpuvkktW?291

Station data:
(291) LPL/Spacewatch II  (N31.961669 W111.599905)  US/Arizona.  Observers J.
   V. Scotti, R. S. McMillan. 1.8-m f/2.7 reflector + CCD.
(807) Cerro Tololo Observatory, La Serena  (S30.169136 W70.805900)  Chile.
(F51) Pan-STARRS 1, Haleakala  (N20.707235 W156.255910)  US/Hawaii.
   Observers N. Primak, A. Schultz, S. Watters, J. Thiel, T. Goggia. Measurer
   PS1 Science Consortium. 1.8-m Ritchey-Chrétien + CCD.

Orbital elements:  P10OpLj
   Perihelion 2020 May 9.476915 +/- 1.34 TT = 11:26:45 (JD 2458978.976915)
Epoch 2019 Jun 11.0 TT = JDT 2458645.5   Earth MOID: 0.7916   AutoNEOCP
M 235.90391618 +/- 0.51             (J2000 ecliptic)
n   0.37212795 +/- 0.000243         Peri.  110.87599 +/- 0.44
a   1.91429051 +/- 0.000833         Node   268.27997 +/- 0.035
e   0.1033681 +/- 0.000317          Incl.   18.13110 +/- 0.032
P   2.65/967.39d           H 18.8   G  0.15   U  7.2  
q 1.71641379 +/- 0.000342    Q 2.11216723 +/- 0.00149
From 13 observations 2019 May 31-June 11; mean residual 0".19
Residuals in arcseconds: 
190531 F51  .08+  .03-    190603 807  .30-  .01-    190607 F51  .12-  .16-    
190531 F51  .07+  .08+    190603 807  .08-  .09+    190611 291  .09+  .22+    
190531 F51  .11+  .02+    190606 807  .23-  .17-    190611 291  .13-  .21-    
190531 F51  .04-  .02-    190606 807  .28+  .25+    
190603 807  .16-  .24-    190606 807  .53+  .24+    

Ephemerides (geocentric):
Date (UTC) HH   RA              Dec         delta   r     elong  mag " sig PA
---- -- -- --  -------------   -----------  ------ ------ -----  --- ---- ---
2019 06 15 19  15 12 00.381   -30 03 22.32  1.1016 2.0335 147.6 21.4 .937  62
2019 06 15 20  15 11 58.782   -30 02 40.32  1.1018 2.0335 147.6 21.4 .946  62
2019 06 15 21  15 11 57.188   -30 01 58.33  1.1020 2.0334 147.5 21.4 .955  62
2019 06 15 22  15 11 55.597   -30 01 16.35  1.1021 2.0334 147.5 21.4 .965  63
2019 06 15 23  15 11 54.011   -30 00 34.38  1.1023 2.0333 147.4 21.4 .974  63
2019 06 16 00  15 11 52.429   -29 59 52.42  1.1025 2.0333 147.4 21.4 .983  63
2019 06 16 01  15 11 50.851   -29 59 10.47  1.1027 2.0333 147.4 21.4 0.99  63
2019 06 16 02  15 11 49.278   -29 58 28.53  1.1029 2.0332 147.3 21.4 1.00  63
2019 06 16 03  15 11 47.709   -29 57 46.60  1.1030 2.0332 147.3 21.4 1.01  63
2019 06 16 04  15 11 46.144   -29 57 04.68  1.1032 2.0331 147.2 21.4 1.02  63
2019 06 16 05  15 11 44.583   -29 56 22.77  1.1034 2.0331 147.2 21.4 1.03  63
2019 06 16 06  15 11 43.027   -29 55 40.88  1.1036 2.0330 147.1 21.4 1.04  63
2019 06 16 07  15 11 41.475   -29 54 58.99  1.1038 2.0330 147.1 21.4 1.05  63
2019 06 16 08  15 11 39.927   -29 54 17.11  1.1040 2.0330 147.1 21.4 1.06  63
2019 06 16 09  15 11 38.383   -29 53 35.24  1.1041 2.0329 147.0 21.4 1.07  63
2019 06 16 10  15 11 36.844   -29 52 53.39  1.1043 2.0329 147.0 21.4 1.08  63
2019 06 16 11  15 11 35.309   -29 52 11.54  1.1045 2.0328 146.9 21.4 1.09  63
2019 06 16 12  15 11 33.778   -29 51 29.71  1.1047 2.0328 146.9 21.4 1.10  63
2019 06 16 13  15 11 32.251   -29 50 47.89  1.1049 2.0328 146.9 21.4 1.11  63
2019 06 16 14  15 11 30.729   -29 50 06.08  1.1051 2.0327 146.8 21.5 1.12  64
2019 06 16 15  15 11 29.211   -29 49 24.27  1.1052 2.0327 146.8 21.5 1.13  64
2019 06 16 16  15 11 27.697   -29 48 42.48  1.1054 2.0326 146.7 21.5 1.14  64
2019 06 16 17  15 11 26.188   -29 48 00.71  1.1056 2.0326 146.7 21.5 1.15  64
2019 06 16 18  15 11 24.682   -29 47 18.94  1.1058 2.0326 146.6 21.5 1.16  64
2019 06 16 19  15 11 23.181   -29 46 37.18  1.1060 2.0325 146.6 21.5 1.17  64
2019 06 16 20  15 11 21.685   -29 45 55.44  1.1062 2.0325 146.6 21.5 1.18  64
2019 06 16 21  15 11 20.192   -29 45 13.71  1.1064 2.0324 146.5 21.5 1.19  64
2019 06 16 22  15 11 18.704   -29 44 31.98  1.1065 2.0324 146.5 21.5 1.20  64
2019 06 16 23  15 11 17.220   -29 43 50.27  1.1067 2.0324 146.4 21.5 1.21  64
2019 06 17 00  15 11 15.740   -29 43 08.57  1.1069 2.0323 146.4 21.5 1.22  64
2019 06 17 01  15 11 14.265   -29 42 26.89  1.1071 2.0323 146.4 21.5 1.23  64
2019 06 17 02  15 11 12.794   -29 41 45.21  1.1073 2.0322 146.3 21.5 1.24  64
2019 06 17 03  15 11 11.327   -29 41 03.55  1.1075 2.0322 146.3 21.5 1.25  64
2019 06 17 04  15 11 09.864   -29 40 21.90  1.1077 2.0322 146.2 21.5 1.26  64
2019 06 17 05  15 11 08.406   -29 39 40.26  1.1079 2.0321 146.2 21.5 1.27  64
2019 06 17 06  15 11 06.952   -29 38 58.63  1.1081 2.0321 146.1 21.5 1.28  64
2019 06 17 07  15 11 05.502   -29 38 17.01  1.1082 2.0320 146.1 21.5 1.29  64
2019 06 17 08  15 11 04.057   -29 37 35.41  1.1084 2.0320 146.1 21.5 1.30  65
2019 06 17 09  15 11 02.616   -29 36 53.82  1.1086 2.0320 146.0 21.5 1.31  65
2019 06 17 10  15 11 01.179   -29 36 12.24  1.1088 2.0319 146.0 21.5 1.33  65
2019 06 17 11  15 10 59.746   -29 35 30.67  1.1090 2.0319 145.9 21.5 1.34  65
2019 06 17 12  15 10 58.318   -29 34 49.12  1.1092 2.0318 145.9 21.5 1.35  65
2019 06 17 13  15 10 56.893   -29 34 07.57  1.1094 2.0318 145.8 21.5 1.36  65
2019 06 17 14  15 10 55.474   -29 33 26.04  1.1096 2.0318 145.8 21.5 1.37  65
2019 06 17 15  15 10 54.058   -29 32 44.53  1.1098 2.0317 145.8 21.5 1.38  65
2019 06 17 16  15 10 52.647   -29 32 03.02  1.1100 2.0317 145.7 21.5 1.39  65
2019 06 17 17  15 10 51.240   -29 31 21.53  1.1102 2.0316 145.7 21.5 1.40  65
2019 06 17 18  15 10 49.837   -29 30 40.05  1.1104 2.0316 145.6 21.5 1.41  65